CSN6426 ZYCC-ZBAD

Flight info

Callsign CSN6426
Flight time 1h 30m
Altitude 34100
Route BUTET9D BUTET G341 TGO G212 BUMDU
Aircraft A20N/M-SDE2E3FGHIRWXY/LB1

Departure

Time 2026-04-29 03:52
Airport Changchun Longjia International Airport (ZYCC)

Arrival

Time 2026-04-29 05:23
Airport Beijing Daxing International Airport (ZBAD)
Time Latitude Longitude Altitude Speed Heading
2026-04-29 03:29 43.99445 125.69078 713 ft 0 kts 139°
2026-04-29 03:42 43.99448 125.69074 713 ft 2 kts 140°
2026-04-29 03:42 43.99459 125.69061 712 ft 2 kts 139°
2026-04-29 03:42 43.99471 125.69047 712 ft 2 kts 139°
2026-04-29 03:42 43.99482 125.69034 712 ft 2 kts 139°
2026-04-29 03:43 43.99489 125.69025 712 ft 2 kts 137°
2026-04-29 03:43 43.99497 125.69007 712 ft 2 kts 106°
2026-04-29 03:43 43.99499 125.68986 712 ft 2 kts 82°
2026-04-29 03:43 43.99494 125.68967 713 ft 2 kts 57°
2026-04-29 03:44 43.99490 125.68960 713 ft 1 kts 45°
2026-04-29 03:44 43.99487 125.68956 713 ft 0 kts 49°
2026-04-29 03:45 43.99488 125.68956 713 ft 0 kts 49°
2026-04-29 03:46 43.99489 125.68958 713 ft 1 kts 49°
2026-04-29 03:46 43.99499 125.68974 713 ft 3 kts 50°
2026-04-29 03:46 43.99520 125.69009 713 ft 5 kts 49°
2026-04-29 03:47 43.99553 125.69048 713 ft 7 kts 17°
2026-04-29 03:47 43.99601 125.69025 713 ft 8 kts 321°
2026-04-29 03:47 43.99649 125.68973 713 ft 9 kts 335°
2026-04-29 03:47 43.99706 125.69003 713 ft 10 kts 47°
2026-04-29 03:48 43.99754 125.69080 713 ft 11 kts 49°
2026-04-29 03:48 43.99806 125.69164 713 ft 12 kts 50°
2026-04-29 03:48 43.99864 125.69257 712 ft 13 kts 50°
2026-04-29 03:48 43.99929 125.69362 712 ft 15 kts 50°
2026-04-29 03:49 43.99995 125.69469 712 ft 14 kts 49°
2026-04-29 03:49 44.00063 125.69578 712 ft 15 kts 49°
2026-04-29 03:49 44.00135 125.69695 712 ft 16 kts 49°
2026-04-29 03:49 44.00212 125.69820 712 ft 17 kts 50°
2026-04-29 03:50 44.00290 125.69945 712 ft 16 kts 49°
2026-04-29 03:50 44.00368 125.70070 712 ft 17 kts 50°
2026-04-29 03:50 44.00422 125.70149 712 ft 9 kts 25°
2026-04-29 03:50 44.00485 125.70115 712 ft 10 kts 320°
2026-04-29 03:51 44.00536 125.70046 712 ft 9 kts 301°
2026-04-29 03:51 44.00534 125.69974 712 ft 6 kts 237°
2026-04-29 03:51 44.00525 125.69958 712 ft 0 kts 229°
2026-04-29 03:51 44.00521 125.69952 712 ft 5 kts 230°
2026-04-29 03:52 44.00357 125.69685 712 ft 73 kts 230°
2026-04-29 03:52 43.99874 125.68910 713 ft 136 kts 229°
2026-04-29 03:52 43.99149 125.67765 921 ft 167 kts 230°
2026-04-29 03:52 43.98392 125.66589 1557 ft 166 kts 233°
2026-04-29 03:53 43.97646 125.65404 2287 ft 165 kts 233°
2026-04-29 03:53 43.96906 125.64223 2939 ft 164 kts 234°
2026-04-29 03:53 43.96173 125.63045 3533 ft 165 kts 234°
2026-04-29 03:53 43.95412 125.61820 4075 ft 171 kts 234°
2026-04-29 03:54 43.94608 125.60523 4460 ft 187 kts 234°
2026-04-29 03:54 43.93720 125.59090 4857 ft 204 kts 234°
2026-04-29 03:54 43.92761 125.57544 5173 ft 227 kts 234°
2026-04-29 03:54 43.91685 125.55816 5621 ft 246 kts 233°
2026-04-29 03:55 43.90528 125.53965 6104 ft 264 kts 233°
2026-04-29 03:55 43.89287 125.51983 6776 ft 275 kts 233°
2026-04-29 03:55 43.88039 125.49995 7551 ft 281 kts 233°
2026-04-29 03:55 43.86749 125.47942 8318 ft 287 kts 233°
2026-04-29 03:56 43.85433 125.45844 9057 ft 294 kts 233°
2026-04-29 03:56 43.84076 125.43682 9793 ft 301 kts 233°
2026-04-29 03:56 43.82694 125.41479 10461 ft 310 kts 233°
2026-04-29 03:56 43.81253 125.39181 10887 ft 327 kts 233°
2026-04-29 03:57 43.79769 125.36659 11264 ft 342 kts 242°
2026-04-29 03:57 43.78801 125.33695 11787 ft 345 kts 259°
2026-04-29 03:57 43.78444 125.30438 12531 ft 342 kts 270°
2026-04-29 03:57 43.78289 125.27132 13255 ft 346 kts 271°
2026-04-29 03:58 43.78146 125.23793 13968 ft 350 kts 271°
2026-04-29 03:58 43.77987 125.20464 14674 ft 354 kts 270°
2026-04-29 03:58 43.77806 125.17039 15381 ft 358 kts 270°
2026-04-29 03:58 43.77615 125.13609 16100 ft 360 kts 269°
2026-04-29 03:59 43.77419 125.10133 16785 ft 364 kts 269°
2026-04-29 03:59 43.77224 125.06647 17458 ft 366 kts 269°
2026-04-29 03:59 43.77027 125.03122 18118 ft 369 kts 269°
2026-04-29 03:59 43.76828 124.99606 18753 ft 373 kts 269°
2026-04-29 04:00 43.76620 124.96008 19380 ft 376 kts 269°
2026-04-29 04:00 43.76414 124.92417 19986 ft 379 kts 269°
2026-04-29 04:00 43.76202 124.88763 20590 ft 383 kts 269°
2026-04-29 04:00 43.75990 124.85107 21189 ft 385 kts 269°
2026-04-29 04:01 43.75777 124.81426 21768 ft 389 kts 269°
2026-04-29 04:01 43.75560 124.77716 22327 ft 392 kts 269°
2026-04-29 04:01 43.75338 124.73927 22873 ft 395 kts 269°
2026-04-29 04:01 43.75116 124.70175 23418 ft 398 kts 269°
2026-04-29 04:02 43.74886 124.66324 23955 ft 401 kts 269°
2026-04-29 04:02 43.74658 124.62517 24453 ft 404 kts 269°
2026-04-29 04:02 43.74423 124.58630 24952 ft 407 kts 269°
2026-04-29 04:02 43.74184 124.54717 25437 ft 409 kts 269°
2026-04-29 04:03 43.73947 124.50835 25885 ft 412 kts 269°
2026-04-29 04:03 43.73550 124.46892 26313 ft 417 kts 262°
2026-04-29 04:03 43.72771 124.43002 26734 ft 423 kts 254°
2026-04-29 04:03 43.71623 124.39261 27150 ft 428 kts 248°
2026-04-29 04:04 43.70303 124.35601 27556 ft 430 kts 247°
2026-04-29 04:04 43.69088 124.31807 27933 ft 430 kts 253°
2026-04-29 04:04 43.68236 124.27834 28319 ft 429 kts 261°
2026-04-29 04:04 43.67758 124.23755 28695 ft 427 kts 267°
2026-04-29 04:05 43.67503 124.19701 29155 ft 426 kts 269°
2026-04-29 04:05 43.67283 124.15675 29677 ft 424 kts 269°
2026-04-29 04:05 43.67064 124.11613 30190 ft 422 kts 269°
2026-04-29 04:05 43.66843 124.07611 30673 ft 421 kts 269°
2026-04-29 04:06 43.66618 124.03618 31125 ft 420 kts 269°
2026-04-29 04:06 43.66387 123.99587 31573 ft 419 kts 269°
2026-04-29 04:06 43.66156 123.95609 31988 ft 418 kts 269°
2026-04-29 04:06 43.65923 123.91627 32402 ft 417 kts 269°
2026-04-29 04:07 43.65689 123.87669 32798 ft 416 kts 269°
2026-04-29 04:07 43.65452 123.83701 33180 ft 415 kts 269°
2026-04-29 04:07 43.65216 123.79766 33558 ft 414 kts 269°
2026-04-29 04:07 43.64976 123.75785 33918 ft 413 kts 269°
2026-04-29 04:08 43.64738 123.71860 34256 ft 412 kts 269°
2026-04-29 04:08 43.64500 123.67956 34538 ft 412 kts 269°
2026-04-29 04:08 43.64259 123.64040 34769 ft 414 kts 269°
2026-04-29 04:08 43.64014 123.60043 34975 ft 415 kts 268°
2026-04-29 04:09 43.63770 123.56096 35178 ft 415 kts 268°
2026-04-29 04:09 43.63522 123.52143 35377 ft 416 kts 268°
2026-04-29 04:09 43.63273 123.48193 35574 ft 416 kts 268°
2026-04-29 04:09 43.63022 123.44228 35767 ft 417 kts 268°
2026-04-29 04:10 43.62772 123.40275 35954 ft 417 kts 268°
2026-04-29 04:10 43.62515 123.36254 36047 ft 418 kts 268°
2026-04-29 04:10 43.61998 123.28258 36058 ft 418 kts 267°
2026-04-29 04:11 43.61481 123.20320 36064 ft 419 kts 267°
2026-04-29 04:11 43.61051 123.12286 36067 ft 419 kts 268°
2026-04-29 04:12 43.60661 123.04338 36061 ft 419 kts 268°
2026-04-29 04:12 43.60254 122.96329 36065 ft 419 kts 268°
2026-04-29 04:13 43.59837 122.88348 36068 ft 419 kts 268°
2026-04-29 04:13 43.59414 122.80322 36070 ft 420 kts 268°
2026-04-29 04:14 43.58986 122.72366 36073 ft 420 kts 268°
2026-04-29 04:14 43.58548 122.64307 36064 ft 421 kts 268°
2026-04-29 04:15 43.58104 122.56278 36076 ft 421 kts 268°
2026-04-29 04:15 43.57655 122.48262 36076 ft 421 kts 268°
2026-04-29 04:16 43.57201 122.40256 36076 ft 421 kts 268°
2026-04-29 04:16 43.56738 122.32220 36078 ft 421 kts 266°
2026-04-29 04:17 43.55750 122.24278 36079 ft 425 kts 257°
2026-04-29 04:17 43.53751 122.16645 36076 ft 428 kts 247°
2026-04-29 04:18 43.50769 122.09535 36078 ft 430 kts 237°
2026-04-29 04:18 43.47315 122.02859 36073 ft 429 kts 236°
2026-04-29 04:19 43.43839 121.96204 36091 ft 429 kts 236°
2026-04-29 04:19 43.40346 121.89509 36101 ft 430 kts 236°
2026-04-29 04:20 43.36890 121.82889 36105 ft 430 kts 236°
2026-04-29 04:20 43.33396 121.76205 36107 ft 430 kts 236°
2026-04-29 04:21 43.29918 121.69568 36103 ft 431 kts 236°
2026-04-29 04:21 43.26414 121.62896 36108 ft 431 kts 236°
2026-04-29 04:22 43.22934 121.56286 36105 ft 430 kts 236°
2026-04-29 04:22 43.19426 121.49635 36101 ft 429 kts 236°
2026-04-29 04:23 43.15942 121.43047 36076 ft 429 kts 236°
2026-04-29 04:23 43.12441 121.36437 36085 ft 429 kts 236°
2026-04-29 04:24 43.08935 121.29820 36082 ft 429 kts 235°
2026-04-29 04:24 43.05458 121.23264 36086 ft 429 kts 234°
2026-04-29 04:25 43.01950 121.16679 36083 ft 429 kts 234°
2026-04-29 04:25 42.98444 121.10119 36093 ft 430 kts 235°
2026-04-29 04:26 42.94931 121.03558 36096 ft 430 kts 234°
2026-04-29 04:26 42.91386 120.96954 36101 ft 430 kts 234°
2026-04-29 04:27 42.87856 120.90421 36107 ft 430 kts 234°
2026-04-29 04:27 42.84307 120.83888 36113 ft 429 kts 234°
2026-04-29 04:28 42.80755 120.77337 36117 ft 429 kts 234°
2026-04-29 04:28 42.77216 120.70812 36110 ft 430 kts 234°
2026-04-29 04:29 42.73691 120.64321 36125 ft 431 kts 234°
2026-04-29 04:29 42.70130 120.57775 36120 ft 432 kts 234°
2026-04-29 04:30 42.66553 120.51215 36124 ft 432 kts 234°
2026-04-29 04:31 42.61199 120.41423 36126 ft 431 kts 234°
2026-04-29 04:31 42.57630 120.34915 36132 ft 431 kts 233°
2026-04-29 04:32 42.54075 120.28419 36130 ft 431 kts 234°
2026-04-29 04:32 42.50499 120.21905 36131 ft 432 kts 233°
2026-04-29 04:33 42.46908 120.15389 36140 ft 432 kts 233°
2026-04-29 04:33 42.43329 120.08913 36138 ft 432 kts 233°
2026-04-29 04:34 42.39718 120.02399 36140 ft 433 kts 233°
2026-04-29 04:34 42.36103 119.95890 36139 ft 433 kts 233°
2026-04-29 04:35 42.32508 119.89432 36153 ft 432 kts 233°
2026-04-29 04:35 42.28891 119.82950 36152 ft 433 kts 233°
2026-04-29 04:36 42.25271 119.76473 36152 ft 433 kts 233°
2026-04-29 04:36 42.21664 119.70034 36137 ft 434 kts 233°
2026-04-29 04:37 42.18015 119.63535 36142 ft 434 kts 233°
2026-04-29 04:37 42.14382 119.57077 36151 ft 434 kts 233°
2026-04-29 04:38 42.10741 119.50621 36146 ft 434 kts 233°
2026-04-29 04:38 42.07082 119.44146 36156 ft 435 kts 233°
2026-04-29 04:39 42.03424 119.37686 36149 ft 435 kts 233°
2026-04-29 04:39 41.99781 119.31255 36160 ft 434 kts 233°
2026-04-29 04:40 41.96114 119.24781 36146 ft 435 kts 232°
2026-04-29 04:40 41.92449 119.18340 36140 ft 435 kts 232°
2026-04-29 04:41 41.88757 119.11880 36135 ft 435 kts 232°
2026-04-29 04:41 41.85059 119.05469 36156 ft 435 kts 232°
2026-04-29 04:42 41.81379 118.99077 36154 ft 435 kts 232°
2026-04-29 04:42 41.77685 118.92656 36148 ft 436 kts 232°
2026-04-29 04:43 41.73986 118.86236 36160 ft 437 kts 232°
2026-04-29 04:43 41.70301 118.79852 36163 ft 436 kts 232°
2026-04-29 04:44 41.66588 118.73432 36156 ft 436 kts 232°
2026-04-29 04:44 41.62887 118.67046 36181 ft 436 kts 232°
2026-04-29 04:45 41.59162 118.60631 36176 ft 436 kts 232°
2026-04-29 04:45 41.55446 118.54245 36185 ft 437 kts 232°
2026-04-29 04:46 41.51730 118.47875 36177 ft 437 kts 232°
2026-04-29 04:46 41.48254 118.41245 36176 ft 436 kts 239°
2026-04-29 04:47 41.45114 118.34396 36194 ft 436 kts 238°
2026-04-29 04:47 41.41951 118.27464 36200 ft 436 kts 238°
2026-04-29 04:48 41.38796 118.20584 36128 ft 438 kts 238°
2026-04-29 04:48 41.37206 118.17130 35944 ft 437 kts 238°
2026-04-29 04:48 41.35623 118.13695 35706 ft 437 kts 238°
2026-04-29 04:48 41.34047 118.10280 35311 ft 440 kts 238°
2026-04-29 04:49 41.32448 118.06822 34776 ft 446 kts 237°
2026-04-29 04:49 41.30808 118.03280 33901 ft 452 kts 237°
2026-04-29 04:49 41.29148 117.99705 33197 ft 454 kts 237°
2026-04-29 04:49 41.27505 117.96169 32528 ft 455 kts 237°
2026-04-29 04:50 41.25837 117.92583 31855 ft 456 kts 238°
2026-04-29 04:50 41.24190 117.89042 31190 ft 457 kts 238°
2026-04-29 04:50 41.22505 117.85427 30504 ft 458 kts 238°
2026-04-29 04:50 41.20852 117.81881 29795 ft 458 kts 238°
2026-04-29 04:51 41.19116 117.78353 29186 ft 455 kts 232°
2026-04-29 04:51 41.17098 117.75073 28618 ft 451 kts 228°
2026-04-29 04:51 41.15036 117.71970 28013 ft 449 kts 227°
2026-04-29 04:51 41.12978 117.68896 27400 ft 448 kts 227°
2026-04-29 04:52 41.10936 117.65822 26772 ft 446 kts 228°
2026-04-29 04:52 41.08910 117.62742 26148 ft 444 kts 229°
2026-04-29 04:52 41.06905 117.59671 25529 ft 443 kts 229°
2026-04-29 04:52 41.04904 117.56596 24898 ft 441 kts 229°
2026-04-29 04:53 41.02917 117.53535 24266 ft 439 kts 229°
2026-04-29 04:53 41.00914 117.50453 23677 ft 436 kts 229°
2026-04-29 04:53 40.98966 117.47455 23186 ft 431 kts 229°
2026-04-29 04:53 40.97021 117.44462 22702 ft 427 kts 229°
2026-04-29 04:54 40.95101 117.41510 22223 ft 423 kts 229°
2026-04-29 04:54 40.93199 117.38590 21756 ft 419 kts 229°
2026-04-29 04:54 40.91310 117.35692 21290 ft 415 kts 229°
2026-04-29 04:54 40.89433 117.32811 20831 ft 411 kts 229°
2026-04-29 04:55 40.87565 117.29955 20367 ft 407 kts 229°
2026-04-29 04:55 40.85718 117.27138 19916 ft 403 kts 229°
2026-04-29 04:55 40.83906 117.24377 19457 ft 400 kts 229°
2026-04-29 04:55 40.82093 117.21613 19005 ft 397 kts 229°
2026-04-29 04:56 40.80299 117.18880 18560 ft 393 kts 229°
2026-04-29 04:56 40.78529 117.16181 18113 ft 390 kts 229°
2026-04-29 04:56 40.76744 117.13464 17660 ft 387 kts 229°
2026-04-29 04:56 40.75001 117.10812 17221 ft 385 kts 229°
2026-04-29 04:57 40.73253 117.08153 16782 ft 382 kts 229°
2026-04-29 04:57 40.71518 117.05518 16345 ft 379 kts 229°
2026-04-29 04:57 40.69799 117.02908 15908 ft 376 kts 229°
2026-04-29 04:57 40.68103 117.00337 15470 ft 373 kts 229°
2026-04-29 04:58 40.66403 116.97760 15044 ft 370 kts 229°
2026-04-29 04:58 40.64727 116.95223 14623 ft 368 kts 229°
2026-04-29 04:58 40.63049 116.92685 14195 ft 365 kts 229°
2026-04-29 04:58 40.61391 116.90198 13940 ft 364 kts 227°
2026-04-29 04:59 40.59603 116.87816 13923 ft 365 kts 223°
2026-04-29 04:59 40.57717 116.85626 13923 ft 365 kts 220°
2026-04-29 04:59 40.55765 116.83433 13929 ft 365 kts 220°
2026-04-29 04:59 40.53854 116.81293 13928 ft 365 kts 220°
2026-04-29 05:00 40.51915 116.79118 13928 ft 365 kts 220°
2026-04-29 05:00 40.49995 116.76962 13927 ft 364 kts 220°
2026-04-29 05:00 40.48055 116.74780 13925 ft 365 kts 220°
2026-04-29 05:00 40.46143 116.72633 13917 ft 364 kts 220°
2026-04-29 05:01 40.44225 116.70480 13922 ft 365 kts 220°
2026-04-29 05:01 40.42086 116.68671 13900 ft 363 kts 199°
2026-04-29 05:01 40.39650 116.68109 13902 ft 357 kts 176°
2026-04-29 05:01 40.37194 116.68455 13904 ft 357 kts 170°
2026-04-29 05:02 40.34723 116.68899 13909 ft 358 kts 170°
2026-04-29 05:02 40.32256 116.69332 13904 ft 358 kts 170°
2026-04-29 05:02 40.29779 116.69750 13906 ft 358 kts 171°
2026-04-29 05:02 40.27313 116.70152 13907 ft 358 kts 171°
2026-04-29 05:03 40.24836 116.70548 13905 ft 358 kts 171°
2026-04-29 05:03 40.22336 116.70944 13910 ft 358 kts 171°
2026-04-29 05:03 40.19864 116.71332 13911 ft 357 kts 171°
2026-04-29 05:03 40.17392 116.71719 13912 ft 357 kts 171°
2026-04-29 05:04 40.14937 116.72103 13916 ft 357 kts 171°
2026-04-29 05:04 40.12469 116.72488 13915 ft 358 kts 171°
2026-04-29 05:04 40.10008 116.72873 13915 ft 357 kts 171°
2026-04-29 05:04 40.07513 116.73262 13915 ft 357 kts 171°
2026-04-29 05:05 40.05049 116.73646 13916 ft 357 kts 171°
2026-04-29 05:05 40.02583 116.74030 13916 ft 358 kts 171°
2026-04-29 05:05 40.00122 116.74412 13915 ft 356 kts 171°
2026-04-29 05:05 39.97680 116.74790 13831 ft 343 kts 171°
2026-04-29 05:06 39.95369 116.75148 13644 ft 333 kts 171°
2026-04-29 05:06 39.93086 116.75500 13465 ft 323 kts 171°
2026-04-29 05:06 39.90901 116.75839 13279 ft 314 kts 171°
2026-04-29 05:06 39.88731 116.76175 12963 ft 310 kts 171°
2026-04-29 05:07 39.86583 116.76507 12578 ft 308 kts 171°
2026-04-29 05:07 39.84464 116.76836 12191 ft 307 kts 171°
2026-04-29 05:07 39.82362 116.77161 11813 ft 306 kts 171°
2026-04-29 05:07 39.80268 116.77485 11445 ft 304 kts 171°
2026-04-29 05:08 39.78155 116.77811 11074 ft 303 kts 171°
2026-04-29 05:08 39.76056 116.78136 10691 ft 301 kts 171°
2026-04-29 05:08 39.73969 116.78458 10308 ft 300 kts 172°
2026-04-29 05:08 39.71903 116.78777 9936 ft 299 kts 172°
2026-04-29 05:09 39.69853 116.79093 9563 ft 297 kts 172°
2026-04-29 05:09 39.67802 116.79410 9211 ft 295 kts 172°
2026-04-29 05:09 39.65770 116.79723 8867 ft 292 kts 172°
2026-04-29 05:09 39.63761 116.80031 8579 ft 289 kts 172°
2026-04-29 05:10 39.61758 116.80338 8330 ft 290 kts 174°
2026-04-29 05:10 39.59730 116.80398 8080 ft 289 kts 184°
2026-04-29 05:10 39.57770 116.80013 7836 ft 287 kts 194°
2026-04-29 05:10 39.55878 116.79249 7595 ft 285 kts 200°
2026-04-29 05:11 39.54007 116.78366 7348 ft 284 kts 201°
2026-04-29 05:11 39.52164 116.77480 7102 ft 282 kts 201°
2026-04-29 05:11 39.50328 116.76608 6896 ft 281 kts 201°
2026-04-29 05:11 39.48496 116.75746 6856 ft 281 kts 201°
2026-04-29 05:12 39.46647 116.74883 6846 ft 278 kts 201°
2026-04-29 05:12 39.44885 116.74073 6839 ft 262 kts 201°
2026-04-29 05:12 39.43202 116.73305 6835 ft 248 kts 201°
2026-04-29 05:12 39.41577 116.72567 6678 ft 248 kts 201°
2026-04-29 05:13 39.39973 116.71843 6437 ft 246 kts 201°
2026-04-29 05:13 39.38362 116.71120 6190 ft 244 kts 201°
2026-04-29 05:13 39.36769 116.70408 5944 ft 241 kts 201°
2026-04-29 05:13 39.35198 116.69711 5697 ft 237 kts 201°
2026-04-29 05:14 39.33635 116.69019 5448 ft 234 kts 201°
2026-04-29 05:14 39.32119 116.68349 5203 ft 230 kts 201°
2026-04-29 05:14 39.30605 116.67683 4983 ft 225 kts 201°
2026-04-29 05:14 39.29153 116.67045 4833 ft 218 kts 201°
2026-04-29 05:15 39.27811 116.66304 4794 ft 198 kts 218°
2026-04-29 05:15 39.27027 116.64952 4559 ft 187 kts 253°
2026-04-29 05:15 39.26718 116.63322 4330 ft 186 kts 262°
2026-04-29 05:15 39.26498 116.61678 4134 ft 186 kts 263°
2026-04-29 05:16 39.26294 116.60044 3941 ft 185 kts 263°
2026-04-29 05:16 39.26089 116.58398 3745 ft 184 kts 263°
2026-04-29 05:16 39.25889 116.56784 3541 ft 184 kts 263°
2026-04-29 05:16 39.25687 116.55143 3358 ft 184 kts 263°
2026-04-29 05:17 39.25489 116.53510 3186 ft 184 kts 263°
2026-04-29 05:17 39.25295 116.51896 3019 ft 183 kts 263°
2026-04-29 05:17 39.25155 116.50273 2951 ft 181 kts 275°
2026-04-29 05:17 39.25650 116.48814 2933 ft 180 kts 313°
2026-04-29 05:18 39.26590 116.47761 2950 ft 180 kts 322°
2026-04-29 05:18 39.27646 116.46858 2945 ft 180 kts 332°
2026-04-29 05:18 39.28822 116.46260 2944 ft 181 kts 343°
2026-04-29 05:18 39.30053 116.45900 2945 ft 181 kts 349°
2026-04-29 05:19 39.31289 116.45657 2944 ft 182 kts 351°
2026-04-29 05:19 39.32554 116.45448 2853 ft 182 kts 352°
2026-04-29 05:19 39.33815 116.45248 2635 ft 182 kts 352°
2026-04-29 05:19 39.35062 116.45051 2401 ft 180 kts 352°
2026-04-29 05:20 39.36271 116.44859 2156 ft 170 kts 352°
2026-04-29 05:20 39.37402 116.44680 1954 ft 158 kts 352°
2026-04-29 05:20 39.38453 116.44514 1747 ft 143 kts 352°
2026-04-29 05:20 39.39421 116.44360 1560 ft 139 kts 352°
2026-04-29 05:21 39.40375 116.44207 1390 ft 139 kts 352°
2026-04-29 05:21 39.41331 116.44054 1222 ft 138 kts 353°
2026-04-29 05:21 39.42291 116.43902 1040 ft 138 kts 352°
2026-04-29 05:21 39.43240 116.43752 860 ft 138 kts 352°
2026-04-29 05:22 39.44190 116.43600 678 ft 138 kts 354°
2026-04-29 05:22 39.45143 116.43446 501 ft 137 kts 354°
2026-04-29 05:22 39.46102 116.43301 331 ft 136 kts 355°
2026-04-29 05:22 39.47036 116.43153 154 ft 135 kts 354°
2026-04-29 05:23 39.47948 116.43005 92 ft 122 kts 354°
2026-04-29 05:23 39.48661 116.42893 90 ft 79 kts 354°
2026-04-29 05:23 39.49043 116.42828 90 ft 34 kts 343°
2026-04-29 05:23 39.49244 116.42687 90 ft 31 kts 326°
2026-04-29 05:24 39.49402 116.42548 90 ft 21 kts 326°